Location: Launois
(49.6535°N, 4.5395°E)
Time: 13:22:42
(UTC+00:00)

Cosmos 468 Rocket - Visible Passes

Search period start: 18 May 2026 00:00
Search period end: 28 May 2026 00:00
Orbit: 740 x 774 km, 74.0° (Epoch: 18 May)

Date Brightness Start Highest point End Pass type
(mag) Time Alt. Az. Time Alt. Az. Time Alt. Az.
18 May 6.8 00:36:16 10° NW 00:37:19 11° NW 00:38:21 10° NNW visible
18 May 5.4 20:28:51 11° SE 20:32:10 19° E 20:35:49 10° NE visible
18 May 4.2 22:08:49 14° SSW 22:13:26 70° WNW 22:18:41 10° NNE visible
18 May 6.6 23:53:12 10° WNW 23:56:16 15° NW 23:59:21 10° N visible
19 May 3.9 21:28:06 12° SSW 21:33:00 72° ESE 21:38:14 10° NNE visible
19 May 6.2 23:11:16 10° W 23:15:22 23° NW 23:19:29 10° N visible
20 May 4.4 20:47:46 10° S 20:52:41 42° ESE 20:57:37 10° NE visible
20 May 5.5 22:29:50 10° WSW 22:34:37 34° NW 22:39:24 10° N visible
21 May 5.1 20:08:17 10° SSE 20:12:30 25° E 20:16:43 10° NE visible
21 May 4.7 21:48:50 10° SW 21:54:00 55° WNW 21:59:09 10° NNE visible
21 May 6.8 23:34:46 10° WNW 23:37:04 13° NW 23:39:22 10° NNW visible
22 May 4.0 21:08:13 10° SSW 21:13:30 89° W 21:18:46 10° NNE visible
22 May 6.6 22:52:28 10° W 22:56:06 19° NW 22:59:46 10° N visible
23 May 4.1 20:28:01 10° S 20:33:08 55° ESE 20:38:15 10° NNE visible
23 May 6.0 22:10:48 10° WSW 22:15:17 28° NW 22:19:46 10° N visible
24 May 5.2 21:29:36 10° SW 21:34:36 43° WNW 21:39:35 10° NNE visible
24 May 7.2 23:16:52 10° NW 23:17:54 11° NW 23:18:57 10° NNW visible
25 May 4.3 20:48:48 10° SSW 20:54:02 70° WNW 20:59:16 10° NNE visible
25 May 6.8 22:33:48 10° WNW 22:36:52 15° NW 22:39:56 10° N visible
26 May 4.0 20:08:23 10° SSW 20:13:37 71° ESE 20:18:49 10° NNE visible
26 May 6.5 21:51:51 10° W 21:55:58 23° NW 22:00:05 10° N visible
27 May 5.8 21:10:27 10° WSW 21:15:13 34° NW 21:19:59 10° N visible
